Location: Newark
(40.4333°N, 3.7000°W)
Time: 01:10:17
(UTC+00:00)

OTV 5 (USA 277) - Visible Passes

Search period start: 25 March 2019 00:00
Search period end: 04 April 2019 00:00
Orbit: 315 x 320 km, 54.5° (Epoch: 14 March)

Date Brightness Start Highest point End Pass type
(mag) Time Alt. Az. Time Alt. Az. Time Alt. Az.
30 Mar ? 04:55:29 10° SE 04:56:02 10° SE 04:56:35 10° ESE visible
31 Mar ? 05:08:05 10° SSW 05:10:30 29° SE 05:12:55 10° ENE visible
01 Apr ? 05:22:24 10° SW 05:25:06 83° NW 05:27:50 10° NE visible
02 Apr ? 04:05:50 17° SE 04:05:50 17° SE 04:07:37 10° E visible
03 Apr ? 04:20:15 53° SE 04:20:15 53° SE 04:22:53 10° ENE visible
